Location: Wyoming Infrared Observatory
(41.0971°N, 105.9765°W)
Time: 17:29:07
(UTC-06:00)

Daily predictions for brighter satellites

Satellite Brightness Start Highest point End
(mag) Time Altitude Azimuth Time Altitude Azimuth Time Altitude Azimuth
ATLAS 2AS CENTAUR R/B 3.9 20:03:34 10° NNW 20:10:45 35° NE 20:17:27 10° ESE
Cosmos 1844 Rocket 3.2 20:10:49 10° NNW 20:16:17 45° ENE 20:21:41 10° SE
Cosmos 1844 4.5 20:11:17 10° N 20:16:32 36° ENE 20:21:46 10° SE
Cosmos 2263 Rocket 3.7 20:12:54 10° NW 20:18:07 38° WSW 20:23:17 10° S
Cosmos 1892 3.9 20:15:21 10° NNE 20:18:38 26° ENE 20:21:55 10° SE
NOSS 7 (D) 4.4 20:15:26 10° SW 20:18:58 87° WNW 20:22:09 10° NE
EO 1 Del DPAF 4.2 20:15:58 10° N 20:19:42 52° WNW 20:23:25 10° SSW
ERS-2 2.3 20:16:20 10° SSE 20:19:53 53° ENE 20:23:29 10° N
Cosmos 2237 Rocket 3.6 20:21:40 10° SE 20:25:07 17° E 20:28:34 10° ENE
Lacrosse 5 4.4 20:22:20 10° NW 20:25:07 14° NNW 20:27:54 10° NNE
Cosmos 2219 Rocket 2.7 20:20:38 10° S 20:25:44 36° ESE 20:30:52 10° NE
ATLAS CENTAUR R/B 2.6 20:25:02 10° SSE 20:27:25 17° ESE 20:29:52 10° ENE
Cosmos 2074 Rocket 4.2 20:22:55 10° S 20:29:12 83° W 20:35:32 10° N
USA 186 1.5 20:27:16 10° SE 20:29:20 36° ENE 20:31:28 10° N
Cosmos 2278 Rocket 3.6 20:28:49 10° N 20:33:16 23° NE 20:37:23 11° ESE
Cosmos 1666 Rocket 3.9 20:30:31 10° N 20:34:52 48° E 20:39:11 10° SSE
Cosmos 1610 Rocket 4.4 20:29:32 10° S 20:35:37 74° E 20:41:47 10° N
NOSS 2-1 (E) 3.1 20:32:48 10° SSW 20:36:22 61° ESE 20:40:17 10° NE
Resurs 1-3 3.9 20:32:24 10° SSE 20:36:37 50° ENE 20:40:53 10° N
Timation 1 Rocket 4.5 20:33:27 10° NNW 20:39:22 59° ENE 20:45:05 11° SE
OAO 2 Rocket 4.0 20:35:01 10° WSW 20:39:54 42° S 20:43:55 14° ESE
YAOGAN 6 2.6 20:37:13 10° SSE 20:40:45 64° ENE 20:44:21 10° N
H-2A R/B 3.8 20:39:07 10° E 20:41:42 15° ENE 20:44:25 10° NNE
NOSS 3-3 (A) 4.0 20:42:21 10° SSW 20:48:10 57° ESE 20:54:33 10° NE
NOSS 3-3 (C) 4.0 20:42:28 10° SSW 20:48:17 57° ESE 20:54:38 10° NE
Cosmos 1340 2.7 20:46:00 10° S 20:49:46 85° W 20:53:36 10° N
Sich 1 2.9 20:45:34 10° N 20:49:52 79° E 20:54:08 10° S
Meteor 2-21 Rocket 4.5 20:44:48 10° S 20:50:49 64° E 20:56:55 10° NNE
Cosmos 1151 Rocket 3.9 20:50:12 14° SE 20:53:08 28° E 20:56:48 10° NNE
Cosmos 1809 Rocket 4.5 20:48:41 10° S 20:54:50 88° W 21:01:04 10° N
Cosmos 1939 Rocket 2.8 20:52:44 10° SSE 20:56:36 86° W 21:00:31 10° NNW
SJ-6B 4.4 20:53:33 10° SSW 20:57:19 36° W 21:01:03 10° NNW
Cosmos 2251 Rocket 3.6 20:52:43 10° NNW 20:58:08 86° WSW 21:03:29 10° SSE
Nadezhda 3 Rocket 4.0 20:52:35 10° N 20:58:57 85° E 21:05:18 10° S
USA 267 4.1 20:54:12 10° ENE 20:59:18 24° ESE 21:04:22 10° S
Cosmos 1825 3.4 20:59:19 10° NNE 21:02:27 24° ENE 21:03:17 22° E
Envisat 4.2 21:00:30 10° SSW 21:05:17 42° W 21:10:06 10° NNW
Cosmos 1633 Rocket 3.0 21:04:26 10° N 21:08:47 86° W 21:12:59 11° S
Cosmos 1869 4.4 21:10:13 25° E 21:10:33 25° E 21:13:54 10° NNE
Meteor 2-3 Rocket 3.6 21:06:23 10° N 21:12:00 78° E 21:16:58 14° SSE
Cosmos 2098 Rocket 4.1 21:11:36 25° ESE 21:12:37 27° E 21:16:08 10° NE
Cosmos 2228 Rocket 3.2 21:09:26 14° SSE 21:13:00 51° E 21:17:16 10° NNE
SL-16 R/B 3.8 21:15:04 16° E 21:15:04 16° E 21:17:18 10° ENE
Meteor 2-14 Rocket 4.5 21:08:09 10° S 21:14:13 83° W 21:20:23 10° N
SL-8 R/B 4.0 21:12:15 10° SSW 21:16:47 43° SE 21:19:40 20° E
Cosmos 1515 Rocket 3.6 21:14:22 14° S 21:18:08 59° E 21:22:33 10° NNE
SL-24 R/B - RUBIN 2 4.2 21:16:27 10° NW 21:20:40 50° WSW 21:23:28 20° S
Meteor 2-16 Rocket 4.5 21:16:59 10° S 21:23:08 86° W 21:29:18 10° N
Helios 1A 4.5 21:26:20 21° ENE 21:26:33 21° ENE 21:29:43 10° NNE
ARGOS 3.4 21:26:04 30° SE 21:28:26 50° ENE 21:33:36 10° N
GEOS 3 Rocket 3.9 21:26:48 10° NE 21:31:53 43° ESE 21:36:50 10° S
SL-08 RB Rocket 4.3 21:31:04 34° E 21:31:57 38° ENE 21:36:06 10° N
Resurs 01 Rocket 2.9 21:30:39 10° SSW 21:34:48 38° W 21:38:57 10° NNW
MetOp-B 4.4 21:33:15 34° SE 21:35:14 51° ENE 21:40:25 10° N
Cosmos 1328 Rocket 4.3 21:35:02 10° SSW 21:39:20 53° W 21:43:41 10° N
Cosmos 1980 3.6 21:34:54 10° SSW 21:40:34 81° ESE 21:46:17 10° NNE
Cosmos 2333 Rocket 2.8 21:41:30 10° SW 21:47:04 57° WNW 21:52:39 10° NNE
Cosmos 1727 Rocket 4.1 21:41:42 10° N 21:47:46 55° E 21:49:42 40° SE
Cosmos 1455 4.0 21:45:09 10° SW 21:48:35 32° WNW 21:52:05 10° NNW
Cosmos 1959 Rocket 4.3 21:44:38 16° S 21:49:38 83° E 21:55:48 10° N
Cosmos 1470 Rocket 4.0 21:45:38 10° NNW 21:49:57 58° W 21:52:03 29° SSW
Meteor 2-10 Rocket 3.7 21:52:18 39° SSE 21:54:23 64° E 22:00:09 10° NNE
Cosmos 1862 4.5 21:51:17 10° N 21:54:06 30° NE 21:54:06 30° NE
Cosmos 1408 3.2 21:55:40 10° NNW 21:59:14 52° W 21:59:42 48° WSW
Terra 3.4 22:00:47 21° ENE 22:00:47 21° ENE 22:03:51 10° NNE
Cosmos 2218 Rocket 4.1 21:56:37 14° S 22:02:08 79° W 22:08:35 10° N
ATLAS 2AS CENTAUR R/B 3.1 21:54:33 10° NW 22:02:19 66° WSW 22:05:45 34° S
SL-08 R/B 4.4 21:59:56 27° S 22:03:36 85° E 22:10:03 10° N
ATLAS CENTAUR R/B 2.7 22:02:38 10° WSW 22:06:03 36° NW 22:09:37 10° NNE
Cosmos 2237 Rocket 2.5 22:02:57 10° SSW 22:08:32 66° WNW 22:14:09 10° NNE
Cosmos 2219 Rocket 3.9 22:04:36 10° WSW 22:09:41 33° WNW 22:14:46 10° N
SPOT 5 3.1 22:10:04 49° ENE 22:10:04 49° ENE 22:14:07 10° N
Lacrosse 5 4.3 22:07:11 10° NNW 22:10:03 15° NNE 22:12:54 10° NE
Genesis I 4.0 22:07:00 10° NW 22:10:54 45° WSW 22:10:55 45° WSW
SPOT 1/Viking Rocket 3.8 22:11:59 52° ENE 22:12:08 52° ENE 22:17:13 10° N
USA 81 3.9 22:07:48 10° N 22:13:06 78° E 22:13:40 69° SE
Cosmos 405 Rocket 4.5 22:16:09 24° NNE 22:16:09 24° NNE 22:17:51 10° NNE
Cosmos 2366 rocket 4.2 22:11:55 19° SSW 22:16:24 68° W 22:22:40 10° N
MetOp-A 4.5 22:14:52 40° SSW 22:16:35 60° W 22:21:53 10° NNW
Cosmos 2278 Rocket 2.6 22:12:11 10° NNW 22:17:44 56° WSW 22:19:15 43° SSW
H-2A R/B 2.1 22:19:45 59° SSW 22:20:34 70° WSW 22:25:34 10° NNW
Cosmos 407 Rocket 3.3 22:23:12 10° NNW 22:28:14 84° NNE 22:28:14 84° NNE
ATLAS 5 CENTAUR R/B 4.4 22:25:16 10° N 22:28:52 16° NNE 22:31:12 14° ENE
ERS-1 Rocket 3.2 22:30:18 57° SW 22:30:47 61° WSW 22:35:46 10° NNW
NOSS 3-4 (A) 3.8 22:25:37 10° NNW 22:32:41 73° NE 22:34:10 58° ESE
NOSS 3-4 (C) 3.8 22:25:44 10° NNW 22:32:47 72° NE 22:34:16 58° ESE
Cosmos 614 Rocket 4.5 22:32:15 10° N 22:36:43 50° NE 22:36:43 50° NE
Cosmos 1825 4.4 22:35:01 10° NW 22:37:52 20° W 22:38:10 20° W
Cosmos 1869 Rocket 4.3 22:36:26 10° NNW 22:39:55 51° NW 22:39:55 51° NW
USA 267 3.1 22:36:13 10° NE 22:42:48 88° NW 22:49:21 10° SW
Cosmos 676 Rocket 4.2 22:40:51 10° NNW 22:45:23 64° N 22:45:23 64° N
Helios 1B rocket 4.0 22:48:20 10° N 22:50:44 33° N 22:50:44 33° N
SL-19 R/B 4.3 22:55:49 73° W 22:55:49 73° W 23:01:10 10° NNW
SL-16 R/B 2.4 22:56:51 63° W 22:57:14 65° WNW 23:02:54 10° NNE
Cosmos 1943 Rocket 3.8 23:09:56 10° N 23:13:38 24° NE 23:13:38 24° NE
Cosmos 1934 Rocket 4.2 23:16:27 63° N 23:16:27 63° N 23:21:29 10° N
USA 234 3.6 23:15:12 51° NE 23:15:55 54° NNE 23:22:15 10° NW
CZ-2C R/B 4.2 23:20:41 35° N 23:20:41 35° N 23:23:28 10° N
Cosmos 2344 3.5 23:20:44 54° SW 23:22:46 81° NW 23:31:11 10° NE
Terra 3.6 23:39:40 29° NW 23:39:40 29° NW 23:42:18 10° NNW
Cosmos 2369 Rocket 3.3 23:33:05 10° NNW 23:37:01 40° NNE 23:37:01 40° NNE
Lacrosse 5 3.7 23:49:39 10° NNW 23:52:35 28° N 23:52:35 28° N
